Location: ????????
(37.9452°N, 23.1472°E)
Time: 05:53:58
(UTC+00:00)

Cosmos 2227 Rocket - Visible Passes

Search period start: 16 July 2024 00:00
Search period end: 26 July 2024 00:00
Orbit: 839 x 844 km, 71.0° (Epoch: 15 July)

Date Brightness Start Highest point End Pass type
(mag) Time Alt. Az. Time Alt. Az. Time Alt. Az.
16 Jul 4.3 01:07:15 10° N 01:12:01 27° ENE 01:16:45 10° ESE visible
17 Jul 4.3 00:52:10 10° N 00:56:50 26° ENE 01:01:27 10° ESE visible
17 Jul 2.6 02:35:42 10° NW 02:40:59 42° WSW 02:46:15 10° S visible
18 Jul 4.4 00:37:04 10° N 00:41:38 24° ENE 00:46:09 10° ESE visible
18 Jul 2.5 02:20:30 10° NW 02:25:50 45° WSW 02:31:09 10° S visible
19 Jul 4.4 00:21:57 10° N 00:26:25 23° NE 00:30:51 10° ESE visible
19 Jul 2.4 02:05:17 10° NW 02:10:41 48° WSW 02:16:03 10° S visible
20 Jul 4.4 00:06:53 10° N 00:11:12 22° NE 00:15:32 10° ESE visible
20 Jul 2.3 01:50:05 10° NNW 01:55:32 51° WSW 02:00:57 10° S visible
20 Jul 4.4 23:51:48 10° N 23:56:00 21° NE 00:00:11 10° ESE visible
21 Jul 2.3 01:34:53 10° NNW 01:40:22 54° WSW 01:45:29 12° S visible
21 Jul 4.5 23:36:42 10° N 23:40:48 20° NE 23:44:51 10° E visible
22 Jul 2.2 01:19:41 10° NNW 01:25:12 58° WSW 01:28:27 24° S visible
22 Jul 4.5 23:21:38 10° N 23:25:35 19° NE 23:29:31 10° E visible
23 Jul 2.1 01:04:29 10° NNW 01:10:03 61° WSW 01:11:59 39° S visible
23 Jul 4.5 23:06:34 10° N 23:10:22 18° NE 23:14:07 10° E visible
24 Jul 2.1 00:49:19 10° NNW 00:54:53 65° WSW 00:55:50 55° SSW visible
24 Jul 4.5 22:51:31 10° NNE 22:55:09 17° NE 22:58:12 12° E visible
25 Jul 2.0 00:34:07 10° NNW 00:39:44 69° WSW 00:39:55 68° SW visible
25 Jul 4.5 22:36:28 10° NNE 22:39:56 16° NE 22:42:26 13° E visible
